Location: Bastrop State Park
(30.1090°N, 97.2819°W)
Time: 08:57:49
(UTC-05:00)

ISS - Visible Passes

Search period start: 28 August 2016 00:00
Search period end: 07 September 2016 00:00
Orbit: 402 x 406 km, 51.6° (Epoch: 28 August)

Date Brightness Start Highest point End Pass type
(mag) Time Alt. Az. Time Alt. Az. Time Alt. Az.
31 Aug -0.5 06:22:41 10° SSE 06:24:32 14° SE 06:26:24 10° E visible
02 Sep -2.3 06:12:46 10° SSW 06:15:52 43° SE 06:19:00 10° ENE visible
03 Sep -1.1 05:23:03 18° SE 05:23:34 19° SE 05:25:56 10° E visible
04 Sep -3.1 06:05:53 28° WSW 06:07:20 55° NW 06:10:34 10° NE visible
05 Sep -1.8 05:15:57 36° ENE 05:15:57 36° ENE 05:18:07 10° NE visible
06 Sep -1.7 05:58:33 20° NW 05:58:55 21° NW 06:01:29 10° NNE visible
